Location: Campillo
(40.8621°N, 4.2488°W)
Time: 14:36:26
(UTC+00:00)

Centaur D AC-29 - Pass Details

Date: 02 October 2021
Orbit: 571 x 36266 km, 26.8° (Epoch: 20 October)

Event Time Altitude Azimuth Distance (km) Brightness Sun altitude
Rises 00:41:47 0° 113° (ESE) 23,156 9.0 -51.9°
Reaches altitude 10° 01:46:37 10° 106° (ESE) 31,620 9.8 -46.5°
Maximum altitude 07:58:06 55° 119° (ESE) 25,453 10.2 18.1°
Drops below altitude 10° 09:33:35 10° 89° (E) 10,484 8.0 33.4°
Sets 09:38:39 0° 87° (E) 10,080 7.7 34.1°
